﻿測定場所 (Monitoring sites),日付 (Measurement date),時間 (Measurement time),線量率 最大値 (max) μGy/h,線量率 最小値 (min) μGy/h,線量率 平均値 (average) μGy/h,
江戸川 (Edogawa),2015-07-05,23:01～24:00,0.0665,0.0587,0.0620,
江戸川 (Edogawa),2015-07-05,22:01～23:00,0.0652,0.0589,0.0617,
江戸川 (Edogawa),2015-07-05,21:01～22:00,0.0653,0.0578,0.0614,
江戸川 (Edogawa),2015-07-05,20:01～21:00,0.0657,0.0581,0.0615,
江戸川 (Edogawa),2015-07-05,19:01～20:00,0.0654,0.0585,0.0616,
江戸川 (Edogawa),2015-07-05,18:01～19:00,0.0668,0.0590,0.0615,
江戸川 (Edogawa),2015-07-05,17:01～18:00,0.0658,0.0574,0.0618,
江戸川 (Edogawa),2015-07-05,16:01～17:00,0.0686,0.0584,0.0627,
江戸川 (Edogawa),2015-07-05,15:01～16:00,0.0695,0.0617,0.0652,
江戸川 (Edogawa),2015-07-05,14:01～15:00,0.0739,0.0656,0.0695,
江戸川 (Edogawa),2015-07-05,13:01～14:00,0.0699,0.0610,0.0647,
江戸川 (Edogawa),2015-07-05,12:01～13:00,0.0665,0.0585,0.0624,
江戸川 (Edogawa),2015-07-05,11:01～12:00,0.0683,0.0610,0.0645,
江戸川 (Edogawa),2015-07-05,10:01～11:00,0.0693,0.0619,0.0651,
江戸川 (Edogawa),2015-07-05,09:01～10:00,0.0682,0.0604,0.0648,
江戸川 (Edogawa),2015-07-05,08:01～09:00,0.0689,0.0605,0.0651,
江戸川 (Edogawa),2015-07-05,07:01～08:00,0.0694,0.0616,0.0656,
江戸川 (Edogawa),2015-07-05,06:01～07:00,0.0692,0.0623,0.0657,
江戸川 (Edogawa),2015-07-05,05:01～06:00,0.0671,0.0602,0.0640,
江戸川 (Edogawa),2015-07-05,04:01～05:00,0.0679,0.0602,0.0646,
江戸川 (Edogawa),2015-07-05,03:01～04:00,0.0688,0.0608,0.0639,
江戸川 (Edogawa),2015-07-05,02:01～03:00,0.0673,0.0609,0.0637,
江戸川 (Edogawa),2015-07-05,01:01～02:00,0.0658,0.0593,0.0631,
江戸川 (Edogawa),2015-07-05,00:01～01:00,0.0675,0.0606,0.0637,
江戸川 (Edogawa),2015-07-04,23:01～24:00,0.0666,0.0598,0.0639,
江戸川 (Edogawa),2015-07-04,22:01～23:00,0.0670,0.0594,0.0632,
江戸川 (Edogawa),2015-07-04,21:01～22:00,0.0654,0.0590,0.0625,
江戸川 (Edogawa),2015-07-04,20:01～21:00,0.0655,0.0578,0.0631,
江戸川 (Edogawa),2015-07-04,19:01～20:00,0.0665,0.0602,0.0632,
江戸川 (Edogawa),2015-07-04,18:01～19:00,0.0665,0.0600,0.0634,
江戸川 (Edogawa),2015-07-04,17:01～18:00,0.0671,0.0607,0.0635,
江戸川 (Edogawa),2015-07-04,16:01～17:00,0.0680,0.0600,0.0639,
江戸川 (Edogawa),2015-07-04,15:01～16:00,0.0658,0.0591,0.0630,
江戸川 (Edogawa),2015-07-04,14:01～15:00,0.0653,0.0587,0.0626,
江戸川 (Edogawa),2015-07-04,13:01～14:00,0.0656,0.0581,0.0621,
江戸川 (Edogawa),2015-07-04,12:01～13:00,0.0684,0.0593,0.0622,
江戸川 (Edogawa),2015-07-04,11:01～12:00,0.0648,0.0585,0.0616,
江戸川 (Edogawa),2015-07-04,10:01～11:00,0.0651,0.0581,0.0619,
江戸川 (Edogawa),2015-07-04,09:01～10:00,0.0657,0.0587,0.0621,
江戸川 (Edogawa),2015-07-04,08:01～09:00,0.0667,0.0586,0.0627,
江戸川 (Edogawa),2015-07-04,07:01～08:00,0.0683,0.0596,0.0642,
江戸川 (Edogawa),2015-07-04,06:01～07:00,0.0728,0.0628,0.0666,
江戸川 (Edogawa),2015-07-04,05:01～06:00,0.0726,0.0643,0.0675,
江戸川 (Edogawa),2015-07-04,04:01～05:00,0.0688,0.0611,0.0648,
江戸川 (Edogawa),2015-07-04,03:01～04:00,0.0674,0.0595,0.0630,
江戸川 (Edogawa),2015-07-04,02:01～03:00,0.0670,0.0600,0.0628,
江戸川 (Edogawa),2015-07-04,01:01～02:00,0.0683,0.0596,0.0634,
江戸川 (Edogawa),2015-07-04,00:01～01:00,0.0702,0.0616,0.0663,
江戸川 (Edogawa),2015-07-03,23:01～24:00,0.0707,0.0613,0.0662,
江戸川 (Edogawa),2015-07-03,22:01～23:00,0.0718,0.0635,0.0677,
江戸川 (Edogawa),2015-07-03,21:01～22:00,0.0688,0.0580,0.0635,
江戸川 (Edogawa),2015-07-03,20:01～21:00,0.0658,0.0590,0.0623,
江戸川 (Edogawa),2015-07-03,19:01～20:00,0.0664,0.0595,0.0632,
江戸川 (Edogawa),2015-07-03,18:01～19:00,0.0681,0.0581,0.0630,
江戸川 (Edogawa),2015-07-03,17:01～18:00,0.0648,0.0565,0.0617,
江戸川 (Edogawa),2015-07-03,16:01～17:00,0.0651,0.0586,0.0621,
江戸川 (Edogawa),2015-07-03,15:01～16:00,0.0691,0.0600,0.0647,
江戸川 (Edogawa),2015-07-03,14:01～15:00,0.0731,0.0655,0.0688,
江戸川 (Edogawa),2015-07-03,13:01～14:00,0.0817,0.0703,0.0745,
江戸川 (Edogawa),2015-07-03,12:01～13:00,0.0818,0.0710,0.0754,
江戸川 (Edogawa),2015-07-03,11:01～12:00,0.0798,0.0695,0.0743,
江戸川 (Edogawa),2015-07-03,10:01～11:00,0.0775,0.0671,0.0721,
江戸川 (Edogawa),2015-07-03,09:01～10:00,0.0722,0.0617,0.0659,
江戸川 (Edogawa),2015-07-03,08:01～09:00,0.0721,0.0636,0.0675,
江戸川 (Edogawa),2015-07-03,07:01～08:00,0.0713,0.0632,0.0668,
江戸川 (Edogawa),2015-07-03,06:01～07:00,0.0702,0.0623,0.0671,
江戸川 (Edogawa),2015-07-03,05:01～06:00,0.0723,0.0639,0.0674,
江戸川 (Edogawa),2015-07-03,04:01～05:00,0.0700,0.0640,0.0673,
江戸川 (Edogawa),2015-07-03,03:01～04:00,0.0687,0.0610,0.0650,
江戸川 (Edogawa),2015-07-03,02:01～03:00,0.0677,0.0601,0.0632,
江戸川 (Edogawa),2015-07-03,01:01～02:00,0.0665,0.0573,0.0633,
江戸川 (Edogawa),2015-07-03,00:01～01:00,0.0673,0.0606,0.0638,
江戸川 (Edogawa),2015-07-02,23:01～24:00,0.0676,0.0599,0.0638,
江戸川 (Edogawa),2015-07-02,22:01～23:00,0.0668,0.0602,0.0633,
江戸川 (Edogawa),2015-07-02,21:01～22:00,0.0660,0.0593,0.0629,
江戸川 (Edogawa),2015-07-02,20:01～21:00,0.0672,0.0607,0.0631,
江戸川 (Edogawa),2015-07-02,19:01～20:00,0.0664,0.0590,0.0631,
江戸川 (Edogawa),2015-07-02,18:01～19:00,0.0659,0.0597,0.0630,
江戸川 (Edogawa),2015-07-02,17:01～18:00,0.0678,0.0602,0.0630,
江戸川 (Edogawa),2015-07-02,16:01～17:00,0.0665,0.0603,0.0628,
江戸川 (Edogawa),2015-07-02,15:01～16:00,0.0677,0.0592,0.0632,
江戸川 (Edogawa),2015-07-02,14:01～15:00,0.0670,0.0596,0.0634,
江戸川 (Edogawa),2015-07-02,13:01～14:00,0.0667,0.0599,0.0634,
江戸川 (Edogawa),2015-07-02,12:01～13:00,0.0698,0.0620,0.0657,
江戸川 (Edogawa),2015-07-02,11:01～12:00,0.0799,0.0659,0.0722,
江戸川 (Edogawa),2015-07-02,10:01～11:00,0.0783,0.0708,0.0740,
江戸川 (Edogawa),2015-07-02,09:01～10:00,0.0759,0.0606,0.0674,
江戸川 (Edogawa),2015-07-02,08:01～09:00,0.0666,0.0587,0.0630,
江戸川 (Edogawa),2015-07-02,07:01～08:00,0.0667,0.0595,0.0629,
江戸川 (Edogawa),2015-07-02,06:01～07:00,0.0668,0.0589,0.0632,
江戸川 (Edogawa),2015-07-02,05:01～06:00,0.0661,0.0576,0.0628,
江戸川 (Edogawa),2015-07-02,04:01～05:00,0.0665,0.0596,0.0631,
江戸川 (Edogawa),2015-07-02,03:01～04:00,0.0675,0.0595,0.0631,
江戸川 (Edogawa),2015-07-02,02:01～03:00,0.0672,0.0590,0.0630,
江戸川 (Edogawa),2015-07-02,01:01～02:00,0.0673,0.0599,0.0631,
江戸川 (Edogawa),2015-07-02,00:01～01:00,0.0681,0.0580,0.0621,
江戸川 (Edogawa),2015-07-01,23:01～24:00,0.0656,0.0572,0.0625,
江戸川 (Edogawa),2015-07-01,22:01～23:00,0.0678,0.0588,0.0628,
江戸川 (Edogawa),2015-07-01,21:01～22:00,0.0665,0.0584,0.0624,
江戸川 (Edogawa),2015-07-01,20:01～21:00,0.0670,0.0587,0.0623,
江戸川 (Edogawa),2015-07-01,19:01～20:00,0.0670,0.0594,0.0628,
江戸川 (Edogawa),2015-07-01,18:01～19:00,0.0654,0.0593,0.0626,
江戸川 (Edogawa),2015-07-01,17:01～18:00,0.0668,0.0588,0.0629,
江戸川 (Edogawa),2015-07-01,16:01～17:00,0.0679,0.0581,0.0638,
江戸川 (Edogawa),2015-07-01,15:01～16:00,0.0702,0.0614,0.0655,
江戸川 (Edogawa),2015-07-01,14:01～15:00,0.0710,0.0640,0.0670,
江戸川 (Edogawa),2015-07-01,13:01～14:00,0.0717,0.0621,0.0672,
江戸川 (Edogawa),2015-07-01,12:01～13:00,0.0739,0.0667,0.0704,
江戸川 (Edogawa),2015-07-01,11:01～12:00,0.0848,0.0666,0.0740,
江戸川 (Edogawa),2015-07-01,10:01～11:00,0.0904,0.0745,0.0832,
江戸川 (Edogawa),2015-07-01,09:01～10:00,0.0888,0.0759,0.0823,
江戸川 (Edogawa),2015-07-01,08:01～09:00,0.0891,0.0690,0.0768,
江戸川 (Edogawa),2015-07-01,07:01～08:00,0.0810,0.0670,0.0736,
江戸川 (Edogawa),2015-07-01,06:01～07:00,0.0801,0.0673,0.0726,
江戸川 (Edogawa),2015-07-01,05:01～06:00,0.0726,0.0657,0.0695,
江戸川 (Edogawa),2015-07-01,04:01～05:00,0.0788,0.0678,0.0717,
江戸川 (Edogawa),2015-07-01,03:01～04:00,0.0802,0.0700,0.0748,
江戸川 (Edogawa),2015-07-01,02:01～03:00,0.0812,0.0640,0.0728,
江戸川 (Edogawa),2015-07-01,01:01～02:00,0.0719,0.0638,0.0678,
江戸川 (Edogawa),2015-07-01,00:01～01:00,0.0773,0.0638,0.0723,
江戸川 (Edogawa),2015-06-30,23:01～24:00,0.0775,0.0700,0.0731,
江戸川 (Edogawa),2015-06-30,22:01～23:00,0.0763,0.0654,0.0711,
江戸川 (Edogawa),2015-06-30,21:01～22:00,0.0692,0.0609,0.0652,
江戸川 (Edogawa),2015-06-30,20:01～21:00,0.0671,0.0608,0.0645,
江戸川 (Edogawa),2015-06-30,19:01～20:00,0.0673,0.0596,0.0642,
江戸川 (Edogawa),2015-06-30,18:01～19:00,0.0677,0.0597,0.0639,
江戸川 (Edogawa),2015-06-30,17:01～18:00,0.0679,0.0609,0.0642,
江戸川 (Edogawa),2015-06-30,16:01～17:00,0.0697,0.0607,0.0644,
江戸川 (Edogawa),2015-06-30,15:01～16:00,0.0701,0.0602,0.0646,
江戸川 (Edogawa),2015-06-30,14:01～15:00,0.0687,0.0599,0.0641,
江戸川 (Edogawa),2015-06-30,13:01～14:00,0.0675,0.0604,0.0643,
江戸川 (Edogawa),2015-06-30,12:01～13:00,0.0687,0.0597,0.0638,
江戸川 (Edogawa),2015-06-30,11:01～12:00,0.0669,0.0597,0.0638,
江戸川 (Edogawa),2015-06-30,10:01～11:00,0.0673,0.0602,0.0642,
江戸川 (Edogawa),2015-06-30,09:01～10:00,0.0684,0.0606,0.0642,
江戸川 (Edogawa),2015-06-30,08:01～09:00,0.0673,0.0612,0.0638,
江戸川 (Edogawa),2015-06-30,07:01～08:00,0.0668,0.0601,0.0639,
江戸川 (Edogawa),2015-06-30,06:01～07:00,0.0685,0.0611,0.0640,
江戸川 (Edogawa),2015-06-30,05:01～06:00,0.0670,0.0600,0.0639,
江戸川 (Edogawa),2015-06-30,04:01～05:00,0.0677,0.0596,0.0635,
江戸川 (Edogawa),2015-06-30,03:01～04:00,0.0685,0.0617,0.0643,
江戸川 (Edogawa),2015-06-30,02:01～03:00,0.0681,0.0612,0.0641,
江戸川 (Edogawa),2015-06-30,01:01～02:00,0.0676,0.0598,0.0644,
江戸川 (Edogawa),2015-06-30,00:01～01:00,0.0667,0.0601,0.0638,
江戸川 (Edogawa),2015-06-29,23:01～24:00,0.0670,0.0611,0.0640,
江戸川 (Edogawa),2015-06-29,22:01～23:00,0.0674,0.0610,0.0640,
江戸川 (Edogawa),2015-06-29,21:01～22:00,0.0676,0.0609,0.0641,
江戸川 (Edogawa),2015-06-29,20:01～21:00,0.0678,0.0602,0.0640,
江戸川 (Edogawa),2015-06-29,19:01～20:00,0.0673,0.0606,0.0642,
江戸川 (Edogawa),2015-06-29,18:01～19:00,0.0673,0.0613,0.0642,
江戸川 (Edogawa),2015-06-29,17:01～18:00,0.0672,0.0595,0.0640,
江戸川 (Edogawa),2015-06-29,16:01～17:00,0.0670,0.0588,0.0635,
江戸川 (Edogawa),2015-06-29,15:01～16:00,0.0677,0.0615,0.0644,
江戸川 (Edogawa),2015-06-29,14:01～15:00,0.0682,0.0607,0.0637,
江戸川 (Edogawa),2015-06-29,13:01～14:00,0.0671,0.0605,0.0637,
江戸川 (Edogawa),2015-06-29,12:01～13:00,0.0677,0.0606,0.0637,
江戸川 (Edogawa),2015-06-29,11:01～12:00,0.0664,0.0601,0.0636,
江戸川 (Edogawa),2015-06-29,10:01～11:00,0.0668,0.0601,0.0634,
江戸川 (Edogawa),2015-06-29,09:01～10:00,0.0666,0.0601,0.0632,
江戸川 (Edogawa),2015-06-29,08:01～09:00,0.0667,0.0595,0.0633,
江戸川 (Edogawa),2015-06-29,07:01～08:00,0.0680,0.0606,0.0631,
江戸川 (Edogawa),2015-06-29,06:01～07:00,0.0667,0.0593,0.0632,
江戸川 (Edogawa),2015-06-29,05:01～06:00,0.0672,0.0585,0.0630,
江戸川 (Edogawa),2015-06-29,04:01～05:00,0.0671,0.0587,0.0629,
江戸川 (Edogawa),2015-06-29,03:01～04:00,0.0657,0.0597,0.0627,
江戸川 (Edogawa),2015-06-29,02:01～03:00,0.0656,0.0591,0.0628,
江戸川 (Edogawa),2015-06-29,01:01～02:00,0.0656,0.0584,0.0630,
江戸川 (Edogawa),2015-06-29,00:01～01:00,0.0666,0.0601,0.0631,
